Preview of NWS' New Version of Forecast
This preview is not operational and should not be used for support decisions.

Terminal Aerodrome Forecast (TAF)

Issued by National Weather Service (NWS)

                            
000
FTUS41 KGYX 250520
TAFRKD
TAF
KRKD 250520Z 2506/2606 08009KT P6SM FEW050
     FM260000 05003KT P6SM SKC=